[[{"header":{"parameterUnit":"m.s-1","parameterCategory":1,"la1":30.2992,"la2":30.254,"lo1":-89.0895,"lo2":-89.0443,"dy":0.0025,"dx":0.0025,"nx":19,"ny":19,"refTime":"2026-03-13T21:00:00:Z","depth":0,"parameterNumber":2,"parameterNumberName":"U-component_of_WINDS"},"data":[0,0,0,-1.0929,-1.0928,-1.0898,-1.0898,-1.0874,-1.0874,0,0,0,0,0,0,0,0,0,0,0,-1.0945,-1.0946,-1.0929,-1.0928,-1.0898,-1.0898,-1.0874,-1.0874,0,0,0,0,0,0,0,0,0,0,0,-1.0945,-1.0945,-1.0946,-1.0928,-1.0898,-1.0898,-1.0874,-1.0892,0,0,0,0,0,0,0,0,0,0,-1.0919,-1.0941,-1.0945,-1.0946,-1.0928,-1.0898,-1.0898,-1.0892,-1.0891,-1.0894,0,-1.0897,0,-1.0885,-1.0873,-1.0873,0,0,0,-1.0923,-1.0943,-1.0928,-1.0946,-1.0928,-1.0898,-1.091,-1.0891,-1.0889,-1.0891,-1.0897,-1.0896,-1.0885,-1.0873,-1.0873,-1.0908,-1.0908,0,0,-1.0924,-1.0944,-1.0929,-1.0927,-1.0931,-1.0911,-1.0909,-1.089,-1.0898,-1.0897,-1.0895,-1.0885,-1.0873,-1.0873,-1.0907,-1.0908,0,0,0,-1.0933,-1.0946,-1.0931,-1.0928,-1.0922,-1.091,-1.0908,-1.0898,-1.0892,-1.0894,-1.0884,-1.0873,-1.0873,-1.0907,-1.0907,-1.0948,0,0,0,-1.0934,-1.0951,-1.0932,-1.0944,-1.0922,-1.0909,-1.0917,-1.0893,-1.089,-1.0884,-1.0873,-1.0873,-1.0906,-1.0907,-1.0945,-1.0963,0,0,0,-1.0945,-1.0952,-1.095,-1.0945,-1.0933,-1.0909,-1.0901,-1.0892,-1.0884,-1.0873,-1.0873,-1.0906,-1.0907,-1.0943,-1.096,-1.0978,0,0,0,-1.0962,-1.0986,-1.0951,-1.0974,-1.0933,-1.0934,-1.0901,-1.0901,-1.0896,-1.0873,-1.0906,-1.0907,-1.0943,-1.0958,-1.0976,-1.0997,-1.1007,0,0,-1.1003,-1.0992,-1.1003,-1.0971,-1.0984,-1.0937,-1.0956,-1.0933,-1.0914,-1.0911,-1.0912,-1.0946,-1.096,-1.0978,-1.106,-1.1069,0,0,0,-1.1023,-1.1032,-1.1031,-1.1027,-1.101,-1.0997,-1.0969,-1.0961,-1.0958,-1.0916,-1.0957,-1.0965,-1.0975,-1.0983,-1.0991,-1.0998,-1.0912,-1.0912,-1.0912,-1.1109,-1.1083,-1.1101,-1.1073,-1.107,-1.1042,-1.1038,-1.1022,-1.0997,-1.1007,-1.1006,-1.1059,-1.107,-1.1075,-1.1084,-1.1015,-1.1015,-1.1015,-1.1015,-1.1166,-1.1174,-1.1142,-1.1148,-1.1122,-1.1127,-1.1101,-1.1084,-1.1085,-1.1057,-1.1065,-1.1036,-1.1086,-1.1091,-1.1018,-1.1018,-1.1017,-1.1017,-1.1017,-1.1219,-1.1218,-1.1208,-1.1202,-1.12,-1.1171,-1.1174,-1.115,-1.1128,-1.1135,-1.1132,-1.1131,-1.1127,-1.1135,-1.1135,-1.1136,-1.1136,-1.1136,-1.1136,-1.1277,-1.1265,-1.127,-1.1255,-1.1251,-1.1242,-1.1215,-1.121,-1.1199,-1.1181,-1.1181,-1.1156,-1.1095,-1.108,-1.1139,-1.1138,-1.1138,-1.1138,-1.1137,-1.1344,-1.1325,-1.1334,-1.1329,-1.1311,-1.1311,-1.1281,-1.1274,-1.1267,-1.1269,-1.1243,-1.1202,-1.1188,-1.1182,-1.117,-1.1248,-1.1248,-1.1248,-1.1248,-1.1388,-1.138,-1.1383,-1.1378,-1.137,-1.1344,-1.1356,-1.1337,-1.1314,-1.1308,-1.1293,-1.1275,-1.127,-1.1259,-1.1252,-1.124,-1.1334,-1.1334,-1.1334,-1.1428,-1.1418,-1.1431,-1.1408,-1.1393,-1.1381,-1.1391,-1.1388,-1.1358,-1.1337,-1.1303,-1.1299,-1.127,-1.1261,-1.1238,-1.1227,-1.1204,0,0]},{"header":{"parameterUnit":"m.s-1","parameterCategory":1,"la1":30.2992,"la2":30.254,"lo1":-89.0895,"lo2":-89.0443,"dy":0.0025,"dx":0.0025,"nx":19,"ny":19,"refTime":"2026-03-13T21:00:00:Z","depth":0,"parameterNumber":3,"parameterNumberName":"V-component_of_WINDS"},"data":[0,0,0,1.4438,1.4437,1.4391,1.4391,1.4325,1.4324,0,0,0,0,0,0,0,0,0,0,0,1.4449,1.4448,1.4438,1.4437,1.4391,1.4391,1.4325,1.4324,0,0,0,0,0,0,0,0,0,0,0,1.4449,1.4448,1.4448,1.4436,1.4391,1.4391,1.4325,1.4362,0,0,0,0,0,0,0,0,0,0,1.4407,1.4415,1.4448,1.4448,1.4436,1.4391,1.4391,1.4364,1.4359,1.4343,0,1.4329,0,1.4326,1.4319,1.4319,0,0,0,1.4438,1.4419,1.4409,1.4448,1.4436,1.4391,1.4412,1.4361,1.4357,1.4337,1.4329,1.4326,1.4325,1.4319,1.4319,1.4224,1.4223,0,0,1.444,1.4439,1.4412,1.4406,1.4415,1.4413,1.441,1.4359,1.4348,1.4328,1.4325,1.4324,1.4318,1.4318,1.4224,1.4224,0,0,0,1.4447,1.444,1.4432,1.4409,1.4401,1.4412,1.4409,1.435,1.4348,1.4324,1.4323,1.4318,1.4317,1.4225,1.4224,1.4198,0,0,0,1.4448,1.4444,1.4433,1.4431,1.4402,1.4375,1.4401,1.4351,1.4346,1.4323,1.4318,1.4317,1.4226,1.4225,1.42,1.4185,0,0,0,1.4452,1.4445,1.4437,1.4431,1.4412,1.4376,1.4371,1.435,1.4345,1.4319,1.4316,1.4226,1.4225,1.4201,1.4188,1.4159,0,0,0,1.4456,1.4413,1.4437,1.4389,1.4412,1.4361,1.4371,1.4333,1.4308,1.4318,1.4226,1.4224,1.4202,1.4189,1.4161,1.4134,1.4123,0,0,1.4401,1.4407,1.4379,1.4398,1.4343,1.4368,1.4308,1.4286,1.4284,1.4244,1.4241,1.4199,1.4188,1.4159,1.4064,1.4055,0,0,0,1.4361,1.434,1.4326,1.4303,1.4287,1.4271,1.4259,1.4251,1.4217,1.4264,1.4182,1.4175,1.4158,1.4145,1.4138,1.4123,1.4219,1.4219,1.4219,1.4279,1.4281,1.4235,1.4231,1.4209,1.4197,1.4179,1.4165,1.4173,1.4153,1.4141,1.4083,1.4067,1.4062,1.4047,1.4128,1.4127,1.4127,1.4127,1.4198,1.417,1.4182,1.4142,1.4143,1.4108,1.4095,1.4102,1.4069,1.4092,1.4077,1.4102,1.4052,1.4039,1.4125,1.4126,1.4126,1.4126,1.4126,1.4144,1.4131,1.4123,1.4091,1.4065,1.4062,1.403,1.4033,1.4035,1.4021,1.4007,1.4007,1.4007,1.4014,1.4014,1.4014,1.4014,1.4014,1.4013,1.4091,1.4083,1.4057,1.4036,1.4022,1.4003,1.3992,1.3977,1.3962,1.3966,1.3966,1.3974,1.4048,1.4066,1.401,1.4011,1.4011,1.4012,1.4012,1.4006,1.4026,1.3985,1.3971,1.3947,1.3921,1.3926,1.3896,1.3884,1.3868,1.388,1.3935,1.394,1.3946,1.396,1.3881,1.3881,1.3881,1.3881,1.3959,1.3963,1.3922,1.3899,1.3877,1.3877,1.3829,1.382,1.3813,1.3805,1.3817,1.3838,1.3844,1.3845,1.3853,1.3867,1.3765,1.3765,1.3765,1.3907,1.3909,1.3868,1.3863,1.3845,1.3829,1.3783,1.3755,1.3751,1.376,1.3799,1.3804,1.3837,1.3847,1.3855,1.3868,1.3893,0,0]}]]